Location: Dackenheim
(49.5215°N, 8.1854°E)
Time: 01:56:40
(UTC+00:00)

Landsat 5 - Pass Details

Date: 19 May 2025
Orbit: 510 x 610 km, 98.1° (Epoch: 23 June)

Event Time Altitude Azimuth Distance (km) Brightness Sun altitude
Rises 21:53:40 0° 22° (NNE) 2,816 7.7 -17.7°
Reaches altitude 10° 21:55:59 10° 32° (NNE) 1,926 6.6 -17.8°
Maximum altitude 21:59:47 33° 97° (E) 1,019 4.4 -18.0°
Enters shadow 22:00:31 31° 118° (ESE) 1,068 4.4 -18.1°
